User: anonymous   Login
Location: Theydon Bois
(51.6750°N, 0.1050°E)
Time: 02:13:43
(UTC+01:00)
Language:

Cosmos 1867 - Orbit

View from above orbital plane
View from above orbital plane
View from above satellite
View from above satellite

Ground track
Ground track

The orbit data is extracted from the following two-line orbital elements,

1 18187U 87060A   18116.16186209 -.00000078  00000-0  82191-5 0  9998
2 18187  65.0109  72.9096 0017093 282.4630  77.4542 14.31094171608785
Epoch (UTC): 26 April 2018 03:53:04
Eccentricity: 0.0017093
inclination: 65.0109°
perigee height: 776 km
apogee height: 800 km
right ascension of ascending node: 72.9096°
argument of perigee: 282.4630°
revolutions per day: 14.31094171
mean anomaly at epoch: 77.4542°
orbit number at epoch: 60878

The dashed part of the orbit path shows where the satellite is in the earth's shadow,  

DLR